Location: Unspecified
(0.0000°N, 0.0000°E)
Time: 18:13:55
(UTC+00:00)

SRMSAT - Pass Details

Date: 06 June 2020
Orbit: 848 x 866 km, 20.0° (Epoch: 06 July)

Event Time Altitude Azimuth Distance (km) Brightness Sun altitude
Rises 19:58:21 0° 309° (NW) 3,387 ? -27.3°
Reaches altitude 10° 20:01:17 10° 321° (NW) 2,453 ? -28.0°
Maximum altitude 20:06:13 27° 18° (NNE) 1,548 ? -29.1°
Enters shadow 20:06:31 27° 23° (NNE) 1,553 ? -29.2°
